EW6640 Weather Reports


time (UTC)temp
C
wind
direction
speed
KPH
gust
KPH
rain 1hr
cm
rain 24hr
cm
rain mn
cm
humidity
%
barometer
mb
20260507023113 7 336 0.0 0.0 0.00 1.42 0.94 86 1016.1
20260507021559 7 336 0.0 0.0 0.00 1.42 0.94 86 1016.1
20260507020056 7 336 0.0 0.0 0.00 1.60 0.94 83 1015.9
20260507014605 8 336 0.0 0.0 0.00 1.60 0.94 81 1015.5
20260507013110 8 336 0.0 0.0 0.00 1.60 0.94 77 1015.4
20260507011552 10 336 0.0 0.0 0.00 1.60 0.94 73 1015.4
20260507010051 10 336 0.0 0.0 0.00 1.98 0.94 71 1015.3
20260507004550 11 336 0.0 0.0 0.00 1.98 0.94 66 1015.2
20260507003049 11 336 0.0 3.2 0.00 1.98 0.94 62 1015.0
20260507001607 12 342 0.0 4.8 0.00 1.98 0.94 61 1014.8
20260507000048 12 342 1.6 8.0 0.00 3.17 0.94 60 1014.8
20260506234547 12 330 3.2 8.0 0.00 3.17 0.94 61 1014.6
20260506233048 12 343 0.0 4.8 0.00 3.17 0.94 60 1014.8
20260506231549 12 327 1.6 6.4 0.00 3.17 0.94 59 1014.7
20260506230045 12 349 1.6 6.4 0.00 3.25 0.94 56 1014.8
20260506224545 12 325 0.0 6.4 0.00 3.25 0.94 59 1015.0
20260506223101 12 346 1.6 8.0 0.00 3.25 0.94 60 1015.0
20260506221543 12 280 0.0 9.7 0.00 3.25 0.94 58 1015.1
20260506220042 12 342 0.0 9.7 0.00 3.25 0.94 60 1014.9
20260506214542 12 342 1.6 8.0 0.00 3.25 0.94 60 1014.8
20260506213040 12 317 3.2 8.0 0.00 3.25 0.94 60 1014.8
20260506211540 12 338 1.6 4.8 0.00 3.25 0.94 60 1014.6
20260506210041 12 325 1.6 6.4 0.00 3.38 0.94 61 1014.5
20260506204537 12 317 1.6 8.0 0.00 3.38 0.94 61 1014.4
20260506203130 12 355 1.6 6.4 0.00 3.38 0.94 60 1014.4
20260506201548 12 323 0.0 8.0 0.00 3.38 0.94 59 1014.4
20260506200002 12 319 3.2 6.4 0.00 3.73 0.94 58 1014.4
20260506194519 12 267 1.6 6.4 0.00 3.73 0.94 60 1014.1
20260506193115 12 308 0.0 8.0 0.00 3.73 0.94 63 1014.1
20260506191651 12 310 1.6 8.0 0.00 3.73 0.94 60 1014.5
20260506190028 12 351 4.8 12.9 0.00 3.73 0.94 62 1014.5
20260506184528 12 351 1.6 6.4 0.00 3.73 0.94 63 1014.4
20260506183029 12 326 3.2 9.7 0.00 3.73 0.94 62 1014.0
20260506181531 12 293 3.2 11.3 0.00 3.73 0.94 64 1014.0
20260506180051 12 313 4.8 12.9 0.00 3.73 0.94 63 1014.3
20260506174513 12 279 1.6 8.0 0.00 3.73 0.94 63 1014.6
20260506173125 12 295 0.0 9.7 0.00 3.73 0.94 64 1014.5
20260506171542 13 271 0.0 4.8 0.00 3.73 0.94 67 1014.3
20260506170051 12 309 1.6 8.0 0.00 3.73 0.94 65 1014.2
20260506164548 12 355 1.6 14.5 0.00 3.73 0.94 68 1014.2
20260506163050 12 323 0.0 8.0 0.00 3.73 0.94 67 1014.2
20260506161552 12 316 3.2 14.5 0.00 3.73 0.94 68 1014.4
20260506160037 11 342 3.2 8.0 0.00 3.73 0.94 73 1013.9
20260506154534 11 313 1.6 8.0 0.00 3.73 0.94 72 1013.8
20260506153031 11 324 3.2 8.0 0.00 3.73 0.94 74 1014.1
20260506151528 10 360 0.0 6.4 0.00 3.73 0.94 79 1013.7
20260506150026 10 5 1.6 12.9 0.00 3.73 0.94 80 1013.4
20260506144525 9 321 1.6 6.4 0.00 3.73 0.94 81 1013.2
20260506143009 9 331 4.8 9.7 0.00 3.73 0.94 82 1013.4
20260506141554 8 325 0.0 9.7 0.00 3.73 0.94 86 1013.5
20260506140051 8 334 1.6 6.4 0.00 3.73 0.94 86 1013.5
20260506134527 7 344 0.0 8.0 0.00 3.73 0.94 87 1013.3
20260506133102 7 336 0.0 6.4 0.00 3.73 0.94 91 1013.0
20260506131528 7 333 1.6 8.0 0.00 3.73 0.94 93 1012.9
20260506130058 7 341 1.6 6.4 0.00 3.73 0.94 94 1013.0
20260506124556 6 323 0.0 4.8 0.00 3.73 0.94 96 1012.7
20260506123056 6 334 0.0 0.0 0.00 3.73 0.94 97 1012.7
20260506121604 6 335 0.0 3.2 0.00 3.73 0.94 97 1012.6
20260506120052 6 317 0.0 4.8 0.00 3.73 0.94 98 1012.0
20260506114553 6 330 0.0 0.0 0.00 3.73 0.94 98 1011.6
20260506113049 6 330 0.0 0.0 0.00 3.73 0.94 98 1011.5
20260506111604 6 330 0.0 0.0 0.00 3.73 0.94 98 1011.4
20260506110048 6 333 0.0 4.8 0.00 3.76 0.94 98 1011.1
20260506104545 6 316 0.0 4.8 0.00 3.76 0.94 98 1010.7
20260506103044 6 253 0.0 1.6 0.00 3.76 0.94 98 1010.4
20260506101544 6 320 0.0 4.8 0.00 3.76 0.94 98 1010.5
20260506100042 5 319 0.0 4.8 0.00 4.32 0.94 98 1010.3
20260506094542 5 328 1.6 8.0 0.00 4.32 0.94 98 1010.5
20260506093038 5 325 0.0 3.2 0.00 4.32 0.94 99 1010.1
20260506091534 5 327 0.0 4.8 0.00 4.32 0.94 99 1009.5
20260506090032 5 327 0.0 4.8 0.03 4.57 0.94 99 1009.9
20260506084531 5 330 0.0 3.2 0.05 4.57 0.94 99 1009.6
20260506083029 6 330 0.0 3.2 0.10 4.57 0.94 99 1009.0
20260506081532 6 331 0.0 6.4 0.08 4.55 0.91 99 1009.7
20260506073026 6 324 0.0 4.8 0.03 4.47 0.84 100 1009.5
20260506071526 6 325 0.0 4.8 0.05 4.47 0.84 100 1009.3
20260506061531 6 346 0.0 8.0 0.25 4.39 0.76 99 1009.5
20260506044507 7 336 0.0 1.6 0.43 3.81 0.18 100 1009.5
20260506043008 7 5 0.0 4.8 0.48 3.78 0.15 99 1008.6
20260506041504 7 355 0.0 6.4 0.43 3.73 0.10 99 1009.0
20260506040101 7 347 0.0 4.8 0.33 3.61 3.61 99 1009.3
20260506034601 8 340 0.0 3.2 0.10 3.38 3.38 99 1009.2
20260506033055 8 355 0.0 6.4 0.08 3.30 3.30 99 1008.7
20260506031553 8 53 0.0 3.2 0.13 3.30 3.30 99 1008.7
20260506030053 8 342 0.0 1.6 0.15 3.28 3.28 99 1008.5
20260506024600 8 342 0.0 3.2 0.18 3.28 3.28 99 1008.7